Portland, ME

7:46 AM EST on January 18, 2018 (GMT -0500)
Portland International

Weather History for KPWM - July, 2013

Change the Weather History Date:

Sunday, July 7, 2013

  Actual Average Record
Temperature  
Mean Temperature 78 °F 69 °F  
Max Temperature 88 °F 78 °F 93 °F (1993)
Min Temperature 67 °F 59 °F 40 °F (1965)
Degree Days  
Heating Degree Days 0 1  
Month to date heating degree days 4 7  
Since 1 June heating degree days 85 113  
Since 1 July heating degree days 4 7  
Cooling Degree Days 13 4  
Month to date cooling degree days 63 28  
Year to date cooling degree days 161 92  
Since 1 June cooling degree days 146 85  
Growing Degree Days 27 (Base 50)    
Moisture  
Dew Point 66 °F    
Average Humidity 66    
Maximum Humidity 81    
Minimum Humidity 50    
Precipitation  
Precipitation 0.01 in 0.12 in 1.57 in (2009)
Month to date precipitation 1.36 0.78  
Year to date precipitation 24.48 23.77  
Snow  
Snow 0.00 in 0.00 in 0.00 in (2002)
Month to date snowfall 0.0 0.0  
Since 1 June snowfall 0.0 0.0  
Since 1 July snowfall 0.0 0.0  
Snow Depth 0.00 in    
Sea Level Pressure  
Sea Level Pressure 29.95 in    
Wind  
Wind Speed 5 mph (West)    
Max Wind Speed 15 mph    
Max Gust Speed 19 mph    
Visibility 10 miles    
Events Rain    
T = Trace of Precipitation, MM = Missing Value Source: NWS Daily Summary

Daily Weather History Graph

Daily Weather History Graph

Search for Another Location

Airport or City:

Trip Planner

Search our weather history database for the weather conditions in past years. The results will help you decide how hot, cold, wet, or windy it might be!

Date:

Astronomy

Jul. 07, 2013 Rise Set
Actual Time 5:07 AM EDT 8:24 PM EDT
Civil Twilight 4:32 AM EDT 8:59 PM EDT
Nautical Twilight 3:46 AM EDT 9:45 PM EDT
Astronomical Twilight 2:49 AM EDT 10:42 PM EDT
Moon 4:42 AM EDT (7/7) 7:43 PM EDT (7/7)
Length of Visible Light 16h 27m
Length of Day
15h 17m
Waning Crescent, 0% of the Moon is Illuminated
Jul 7
Waning Crescent
Jul 8
New
Jul 15
First Quarter
Jul 22
Full
Jul 29
Last Quarter

Hourly Weather History & Observations

Time (EDT) Temp. Heat Index Dew Point Humidity Pressure Visibility Wind Dir Wind Speed Gust Speed Precip Events Conditions
12:51 AM 71.1 °F - 62.1 °F 73% 29.98 in 10.0 mi West 5.8 mph - N/A   Clear
1:51 AM 70.0 °F - 63.0 °F 78% 29.97 in 10.0 mi West 4.6 mph - N/A   Clear
2:51 AM 69.1 °F - 63.0 °F 81% 29.97 in 10.0 mi WNW 3.5 mph - N/A   Clear
3:51 AM 69.1 °F - 63.0 °F 81% 29.96 in 10.0 mi Calm Calm - N/A   Clear
4:51 AM 68.0 °F - 63.0 °F 84% 29.97 in 10.0 mi Calm Calm - N/A   Clear
5:51 AM 71.1 °F - 64.0 °F 78% 29.97 in 10.0 mi WSW 5.8 mph - N/A   Clear
6:51 AM 72.0 °F - 64.0 °F 76% 29.97 in 10.0 mi Variable 4.6 mph - N/A   Clear
7:51 AM 75.0 °F - 64.9 °F 71% 29.98 in 10.0 mi West 8.1 mph - N/A   Clear
8:51 AM 75.9 °F - 66.0 °F 71% 29.99 in 10.0 mi West 9.2 mph - N/A   Clear
9:51 AM 78.1 °F - 64.9 °F 64% 29.98 in 10.0 mi West 8.1 mph - N/A   Clear
10:51 AM 79.0 °F - 66.9 °F 66% 29.97 in 10.0 mi WNW 5.8 mph - N/A   Clear
11:51 AM 81.0 °F 83.0 °F 66.0 °F 60% 29.97 in 10.0 mi West 6.9 mph - N/A   Clear
12:51 PM 82.9 °F 85.0 °F 66.0 °F 56% 29.96 in 10.0 mi West 8.1 mph - N/A   Clear
1:51 PM 86.0 °F 88.2 °F 66.0 °F 51% 29.95 in 10.0 mi West 11.5 mph - N/A   Clear
2:51 PM 84.9 °F 88.2 °F 68.0 °F 57% 29.94 in 10.0 mi West 8.1 mph - N/A   Clear
3:51 PM 87.1 °F 89.2 °F 66.0 °F 49% 29.93 in 10.0 mi West 9.2 mph - N/A   Clear
4:51 PM 82.9 °F 84.6 °F 64.9 °F 54% 29.92 in 10.0 mi West 8.1 mph - N/A   Clear
5:51 PM 84.0 °F 86.5 °F 66.9 °F 56% 29.91 in 10.0 mi WSW 6.9 mph - N/A   Clear
6:51 PM 84.0 °F 86.3 °F 66.0 °F 55% 29.91 in 10.0 mi WSW 4.6 mph - N/A   Overcast
7:51 PM 78.1 °F - 68.0 °F 71% 29.91 in 10.0 mi South 4.6 mph - N/A   Partly Cloudy
8:51 PM 75.9 °F - 66.9 °F 74% 29.91 in 7.0 mi Calm Calm - 0.00 in Rain Light Rain
9:51 PM 77.0 °F - 66.0 °F 69% 29.93 in 10.0 mi SSW 3.5 mph - 0.00 in   Overcast
10:51 PM 75.9 °F - 69.1 °F 79% 29.94 in 9.0 mi WNW 4.6 mph - 0.00 in Rain Light Rain
11:51 PM 73.9 °F - 71.1 °F 91% 29.93 in 9.0 mi Calm Calm - 0.01 in   Clear